Regional Weather Roundup
Issued by NWS

Home | Current Version | Previous Version | Text Only | Print | Product List | Glossary Off
Versions: 1 2 3 4 5 6 7 8 9 10 11 12 13 14 15 16 17 18 19 20 21 22 23 24 25 26 27 28 29 30 31 32 33 34 35 36 37 38 39 40 41 42 43 44 45 46 47 48 49 50

000
ASUS43 KLSX 291307
RWRMO

WEATHER SUMMARY FOR MISSOURI
NATIONAL WEATHER SERVICE SPRINGFIELD MO
800 AM CDT SUN MAY 29 2016

NOTE: "FAIR" INDICATES FEW OR NO CLOUDS BELOW 12,000 FEET WITH NO
       SIGNIFICANT WEATHER AND/OR OBSTRUCTIONS TO VISIBILITY.
       CURRENT SKY AND/OR WEATHER CONDITIONS ARE NOT AVAILABLE FOR
       CHILLICOTHE AND FARMINGTON.

MOZ001>031-035>038-043-044-053-054-291400-
...NORTHERN AND WESTERN MISSOURI...

CITY           SKY/WX    TMP DP  RH WIND       PRES   REMARKS
KANSAS CTY INT SUNNY     67  60  78 W6        30.09R
KANSAS C DTWN  SUNNY     69  62  78 CALM      30.08R
LEE`S SUMMIT   SUNNY     69  61  75 SW8       30.09R
ST JOSEPH      SUNNY     66  61  84 CALM      30.09R
CHILLICOTHE      N/A     67  61  81 VRB3      30.10R
KIRKSVILLE     SUNNY     67  60  78 W5        30.08R

$$
MOZ066>068-077>081-088>096-101>105-291400-
...SOUTHWEST MISSOURI...

CITY           SKY/WX    TMP DP  RH WIND       PRES   REMARKS
SPRINGFIELD    CLOUDY    68  64  87 S5        30.13R
JOPLIN         SUNNY     71  68  90 SW6       30.13R
BRANSON        PTSUNNY   72  66  83 CALM      30.15R

$$
MOZ032>034-039>042-045>050-055>058-069>072-291400-
...CENTRAL MISSOURI...

CITY           SKY/WX    TMP DP  RH WIND       PRES   REMARKS
COLUMBIA       SUNNY     71  65  81 W5        30.10R
JEFFERSON CITY SUNNY     69  64  84 CALM      30.09R
ROLLA          SUNNY     70  65  84 W8        30.10R
SEDALIA        SUNNY     71  63  75 SW6       30.10S
WHITEMAN AFB   SUNNY     70  65  83 W3        30.08S
WARRENSBURG    SUNNY     64  61  88 CALM      30.09R

$$
MOZ051-052-059>065-291400-
...EAST CENTRAL MISSOURI...

CITY           SKY/WX    TMP DP  RH WIND       PRES   REMARKS
ST LOUIS INTL  SUNNY     73  63  70 W7        30.09R
SPIRIT OF STL  SUNNY     72  65  78 W5        30.08R
ST CHARLES     SUNNY     69  64  84 CALM      30.08R

$$
MOZ072>076-082>087-097>100-106>115-291400-
...SOUTH CENTRAL AND SOUTHEAST MISSOURI...

CITY           SKY/WX    TMP DP  RH WIND       PRES   REMARKS
CAPE GIRARDEAU MOSUNNY   72  69  90 SW5       30.09R
FARMINGTON     SUNNY     71  67  87 W3        30.12R
POPLAR BLUFF   MOSUNNY   71  67  87 W3        30.10R
WEST PLAINS    CLOUDY    73  65  75 CALM      30.15R

$$


USA.gov is the U.S. government's official web portal to all federal, state and local government web resources and services.